| time (UTC) | temp F | wind direction | speed knots | gust knots | rain 1hr in | rain 24hr in | rain mn in | humidity % | barometer mb |
| 20260505071548 | 41 | 23 | 0.0 | 2.6 | 0.00 | 0.06 | 0.02 | 93 | 1004.3 |
| 20260505071347 | 41 | 23 | 0.0 | 2.6 | 0.00 | 0.06 | 0.02 | 93 | 1004.4 |
| 20260505071137 | 41 | 23 | 0.0 | 2.6 | 0.00 | 0.06 | 0.02 | 93 | 1004.6 |
| 20260505070611 | 41 | 23 | 0.0 | 0.9 | 0.00 | 0.06 | 0.02 | 93 | 1004.7 |
| 20260505070402 | 41 | 23 | 0.0 | 0.0 | 0.00 | 0.06 | 0.02 | 92 | 1004.8 |
| 20260505065836 | 41 | 23 | 0.0 | 1.7 | 0.00 | 0.06 | 0.02 | 93 | 1004.6 |
| 20260505065628 | 41 | 23 | 0.0 | 1.7 | 0.00 | 0.06 | 0.02 | 92 | 1004.7 |
| 20260505065421 | 41 | 23 | 0.0 | 2.6 | 0.00 | 0.06 | 0.02 | 92 | 1004.6 |
| 20260505065217 | 41 | 23 | 0.0 | 2.6 | 0.00 | 0.06 | 0.02 | 92 | 1004.6 |
| 20260505064655 | 41 | 23 | 0.0 | 2.6 | 0.00 | 0.06 | 0.02 | 92 | 1004.6 |
| 20260505064448 | 41 | 23 | 0.0 | 2.6 | 0.00 | 0.06 | 0.02 | 92 | 1004.6 |
| 20260505064240 | 41 | 23 | 0.0 | 2.6 | 0.00 | 0.06 | 0.02 | 92 | 1004.7 |
| 20260505064036 | 41 | 23 | 0.0 | 2.6 | 0.00 | 0.06 | 0.02 | 92 | 1004.6 |
| 20260505063829 | 41 | 23 | 0.0 | 2.6 | 0.00 | 0.06 | 0.02 | 92 | 1004.7 |
| 20260505063623 | 41 | 23 | 0.0 | 2.6 | 0.04 | 0.06 | 0.02 | 92 | 1004.6 |
| 20260505063412 | 41 | 23 | 0.0 | 0.9 | 0.04 | 0.06 | 0.02 | 92 | 1004.6 |
| 20260505063210 | 41 | 23 | 0.0 | 0.0 | 0.04 | 0.06 | 0.02 | 92 | 1004.6 |
| 20260505063003 | 41 | 23 | 0.9 | 3.5 | 0.04 | 0.06 | 0.02 | 92 | 1004.5 |
| 20260505062438 | 41 | 23 | 0.9 | 3.5 | 0.04 | 0.06 | 0.02 | 92 | 1004.2 |
| 20260505062234 | 41 | 23 | 0.0 | 3.5 | 0.04 | 0.06 | 0.02 | 92 | 1004.2 |
| 20260505062027 | 41 | 23 | 0.0 | 3.5 | 0.04 | 0.05 | 0.01 | 92 | 1004.2 |
| 20260505061452 | 41 | 22 | 0.0 | 0.9 | 0.04 | 0.05 | 0.01 | 92 | 1004.8 |
| 20260505060926 | 41 | 22 | 0.9 | 5.2 | 0.04 | 0.04 | 0.01 | 91 | 1004.7 |
| 20260505060722 | 41 | 28 | 1.7 | 5.2 | 0.04 | 0.04 | 0.01 | 91 | 1004.7 |
| 20260505060519 | 41 | 29 | 1.7 | 5.2 | 0.00 | 0.04 | 0.00 | 91 | 1004.7 |
| 20260505060310 | 41 | 29 | 1.7 | 5.2 | 0.00 | 0.04 | 0.00 | 91 | 1004.6 |
| 20260505060108 | 41 | 29 | 1.7 | 5.2 | 0.00 | 0.04 | 0.00 | 91 | 1004.6 |
| 20260505055900 | 41 | 54 | 0.9 | 5.2 | 0.00 | 0.04 | 0.04 | 91 | 1004.8 |
| 20260505055332 | 41 | 294 | 0.9 | 3.5 | 0.00 | 0.03 | 0.04 | 91 | 1005.1 |
| 20260505054805 | 41 | 286 | 0.9 | 4.3 | 0.00 | 0.03 | 0.03 | 91 | 1004.9 |
| 20260505054605 | 41 | 286 | 0.9 | 4.3 | 0.00 | 0.03 | 0.03 | 91 | 1005.0 |
| 20260505054405 | 41 | 286 | 0.9 | 4.3 | 0.00 | 0.03 | 0.03 | 90 | 1005.1 |
| 20260505054157 | 41 | 285 | 0.9 | 4.3 | 0.00 | 0.03 | 0.03 | 90 | 1004.9 |
| 20260505053950 | 41 | 285 | 1.7 | 4.3 | 0.00 | 0.03 | 0.03 | 90 | 1004.9 |
| 20260505053744 | 41 | 285 | 1.7 | 4.3 | 0.00 | 0.03 | 0.03 | 90 | 1004.9 |
| 20260505053534 | 41 | 285 | 1.7 | 4.3 | 0.00 | 0.03 | 0.03 | 90 | 1004.9 |
| 20260505053328 | 41 | 286 | 1.7 | 4.3 | 0.00 | 0.03 | 0.03 | 90 | 1004.9 |
| 20260505053122 | 41 | 288 | 0.9 | 4.3 | 0.00 | 0.03 | 0.03 | 89 | 1004.9 |
| 20260505052922 | 41 | 298 | 0.9 | 3.5 | 0.00 | 0.03 | 0.03 | 89 | 1005.0 |
| 20260505052719 | 41 | 313 | 0.9 | 3.5 | 0.00 | 0.03 | 0.03 | 89 | 1004.9 |
| 20260505052155 | 41 | 12 | 0.0 | 2.6 | 0.00 | 0.03 | 0.03 | 89 | 1004.8 |
| 20260505051955 | 41 | 12 | 0.0 | 2.6 | 0.00 | 0.03 | 0.03 | 88 | 1004.8 |
| 20260505051754 | 41 | 12 | 0.0 | 2.6 | 0.00 | 0.03 | 0.03 | 88 | 1004.9 |
| 20260505051553 | 41 | 12 | 0.0 | 0.0 | 0.00 | 0.03 | 0.03 | 88 | 1004.8 |
| 20260505051353 | 41 | 12 | 0.0 | 0.0 | 0.00 | 0.03 | 0.03 | 88 | 1004.9 |
| 20260505051147 | 41 | 12 | 0.0 | 1.7 | 0.00 | 0.03 | 0.03 | 88 | 1004.9 |
| 20260505050944 | 41 | 12 | 0.0 | 1.7 | 0.00 | 0.03 | 0.03 | 88 | 1004.9 |
| 20260505050733 | 41 | 12 | 0.9 | 4.3 | 0.00 | 0.03 | 0.03 | 88 | 1004.7 |
| 20260505050530 | 41 | 12 | 1.7 | 4.3 | 0.00 | 0.03 | 0.03 | 88 | 1004.7 |
| 20260505050327 | 41 | 12 | 1.7 | 4.3 | 0.00 | 0.03 | 0.03 | 88 | 1004.6 |
| 20260505050117 | 41 | 11 | 1.7 | 4.3 | 0.00 | 0.03 | 0.03 | 88 | 1004.5 |
| 20260505041602 | 42 | 5 | 1.7 | 6.1 | 0.00 | 0.03 | 0.03 | 87 | 1003.8 |
| 20260505041357 | 42 | 5 | 1.7 | 6.1 | 0.00 | 0.03 | 0.03 | 87 | 1003.8 |
| 20260505040836 | 42 | 5 | 2.6 | 6.1 | 0.00 | 0.03 | 0.03 | 87 | 1003.7 |
| 20260505040626 | 42 | 5 | 2.6 | 6.1 | 0.00 | 0.03 | 0.03 | 87 | 1003.6 |
| 20260505040425 | 42 | 5 | 2.6 | 6.1 | 0.00 | 0.03 | 0.03 | 87 | 1003.5 |
| 20260505040224 | 42 | 5 | 2.6 | 6.1 | 0.00 | 0.03 | 0.03 | 87 | 1003.6 |
| 20260505040023 | 42 | 33 | 2.6 | 6.1 | 0.00 | 0.03 | 0.03 | 87 | 1003.6 |
| 20260505035822 | 42 | 29 | 2.6 | 6.1 | 0.00 | 0.03 | 0.03 | 87 | 1003.5 |
| 20260505035623 | 42 | 346 | 1.7 | 5.2 | 0.00 | 0.03 | 0.03 | 87 | 1003.6 |
| 20260505035418 | 42 | 346 | 1.7 | 5.2 | 0.00 | 0.03 | 0.03 | 87 | 1003.5 |
| 20260505035207 | 42 | 24 | 1.7 | 5.2 | 0.00 | 0.03 | 0.03 | 87 | 1003.6 |
| 20260505035001 | 42 | 11 | 1.7 | 4.3 | 0.00 | 0.03 | 0.03 | 87 | 1003.8 |
| 20260505034756 | 42 | 316 | 1.7 | 4.3 | 0.00 | 0.03 | 0.03 | 87 | 1003.9 |
| 20260505034555 | 42 | 312 | 1.7 | 4.3 | 0.00 | 0.03 | 0.03 | 87 | 1003.9 |
| 20260505034346 | 42 | 307 | 1.7 | 4.3 | 0.00 | 0.03 | 0.03 | 87 | 1003.9 |
| 20260505034140 | 42 | 331 | 1.7 | 4.3 | 0.00 | 0.03 | 0.03 | 86 | 1003.9 |
| 20260505033935 | 42 | 325 | 2.6 | 7.8 | 0.00 | 0.03 | 0.03 | 86 | 1003.9 |
| 20260505033731 | 42 | 323 | 2.6 | 7.8 | 0.00 | 0.03 | 0.03 | 86 | 1003.8 |
| 20260505033526 | 42 | 342 | 2.6 | 7.8 | 0.00 | 0.02 | 0.03 | 86 | 1003.7 |
| 20260505033004 | 42 | 355 | 4.3 | 7.8 | 0.00 | 0.02 | 0.02 | 86 | 1003.6 |
| 20260505032758 | 42 | 9 | 4.3 | 7.8 | 0.00 | 0.02 | 0.02 | 86 | 1003.6 |
| 20260505032552 | 42 | 5 | 4.3 | 7.8 | 0.00 | 0.02 | 0.02 | 86 | 1003.6 |
| 20260505032035 | 42 | 12 | 3.5 | 7.8 | 0.00 | 0.02 | 0.02 | 86 | 1003.6 |
| 20260505031834 | 42 | 334 | 2.6 | 6.1 | 0.00 | 0.02 | 0.02 | 86 | 1003.7 |
| 20260505031628 | 42 | 325 | 2.6 | 5.2 | 0.00 | 0.02 | 0.02 | 86 | 1003.8 |
| 20260505031416 | 42 | 341 | 1.7 | 5.2 | 0.00 | 0.02 | 0.02 | 86 | 1003.8 |
| 20260505031210 | 42 | 348 | 0.9 | 4.3 | 0.00 | 0.02 | 0.02 | 86 | 1003.7 |
| 20260505031007 | 42 | 323 | 0.9 | 4.3 | 0.00 | 0.02 | 0.02 | 86 | 1003.6 |
| 20260505030443 | 42 | 305 | 0.9 | 3.5 | 0.00 | 0.02 | 0.02 | 86 | 1003.7 |
| 20260505030238 | 42 | 305 | 0.9 | 3.5 | 0.00 | 0.02 | 0.02 | 86 | 1003.7 |
| 20260505030033 | 42 | 305 | 0.9 | 3.5 | 0.00 | 0.02 | 0.02 | 86 | 1003.7 |
| 20260505025831 | 42 | 333 | 0.9 | 3.5 | 0.00 | 0.02 | 0.02 | 85 | 1003.6 |
| 20260505025629 | 42 | 333 | 0.9 | 3.5 | 0.00 | 0.02 | 0.02 | 85 | 1003.6 |
| 20260505025426 | 42 | 333 | 0.9 | 3.5 | 0.00 | 0.02 | 0.02 | 85 | 1003.6 |
| 20260505025225 | 42 | 338 | 0.9 | 3.5 | 0.00 | 0.02 | 0.02 | 85 | 1003.6 |
| 20260505025024 | 42 | 317 | 0.9 | 3.5 | 0.00 | 0.02 | 0.02 | 86 | 1003.6 |
| 20260505024817 | 42 | 32 | 0.0 | 2.6 | 0.00 | 0.02 | 0.02 | 86 | 1003.6 |
| 20260505024251 | 42 | 32 | 0.0 | 2.6 | 0.00 | 0.02 | 0.02 | 85 | 1003.4 |
| 20260505024050 | 43 | 32 | 0.0 | 2.6 | 0.00 | 0.02 | 0.02 | 85 | 1003.4 |
| 20260505023846 | 43 | 32 | 0.0 | 0.9 | 0.00 | 0.02 | 0.02 | 85 | 1003.4 |
| 20260505023640 | 43 | 32 | 0.0 | 0.9 | 0.00 | 0.02 | 0.02 | 85 | 1003.3 |
| 20260505023437 | 43 | 32 | 0.0 | 0.9 | 0.00 | 0.02 | 0.02 | 84 | 1003.2 |
| 20260505023235 | 43 | 32 | 0.0 | 0.9 | 0.00 | 0.02 | 0.02 | 84 | 1003.2 |
| 20260505023026 | 43 | 32 | 0.0 | 7.0 | 0.00 | 0.02 | 0.02 | 83 | 1003.2 |
| 20260505022826 | 43 | 32 | 0.0 | 7.0 | 0.00 | 0.02 | 0.02 | 82 | 1003.1 |
| 20260505022301 | 43 | 32 | 0.9 | 7.0 | 0.00 | 0.02 | 0.02 | 82 | 1003.2 |
| 20260505022052 | 43 | 32 | 1.7 | 7.0 | 0.00 | 0.02 | 0.02 | 81 | 1003.2 |
| 20260505021851 | 44 | 32 | 1.7 | 7.0 | 0.00 | 0.02 | 0.02 | 81 | 1003.4 |
| 20260505021649 | 44 | 32 | 2.6 | 7.0 | 0.00 | 0.02 | 0.02 | 81 | 1003.3 |
| 20260505021117 | 44 | 33 | 1.7 | 5.2 | 0.00 | 0.02 | 0.02 | 80 | 1003.3 |
| 20260505015903 | 45 | 5 | 1.7 | 7.8 | 0.06 | 0.02 | 0.02 | 77 | 1003.3 |
| 20260505015654 | 45 | 5 | 1.7 | 7.8 | 0.08 | 0.02 | 0.02 | 76 | 1003.2 |
| 20260505015449 | 45 | 5 | 2.6 | 7.8 | 0.08 | 0.02 | 0.02 | 76 | 1003.2 |
| 20260505015246 | 45 | 9 | 2.6 | 7.8 | 0.08 | 0.02 | 0.02 | 75 | 1003.3 |
| 20260505015040 | 46 | 9 | 3.5 | 7.8 | 0.08 | 0.01 | 0.02 | 75 | 1003.2 |
| 20260505014831 | 46 | 19 | 3.5 | 7.8 | 0.00 | 0.01 | 0.01 | 73 | 1003.2 |
| 20260505014628 | 46 | 355 | 4.3 | 7.8 | 0.00 | 0.01 | 0.01 | 73 | 1003.1 |
| 20260505014424 | 46 | 22 | 3.5 | 11.3 | 0.00 | 0.00 | 0.01 | 72 | 1003.0 |
| 20260505014221 | 47 | 32 | 4.3 | 11.3 | 0.00 | 0.00 | 0.00 | 71 | 1003.0 |
| 20260505014022 | 47 | 51 | 4.3 | 11.3 | 0.00 | 0.00 | 0.00 | 70 | 1002.9 |
| 20260505013823 | 47 | 350 | 4.3 | 11.3 | 0.00 | 0.00 | 0.00 | 68 | 1003.2 |
| 20260505013620 | 47 | 355 | 4.3 | 11.3 | 0.00 | 0.00 | 0.00 | 67 | 1003.3 |
| 20260505013420 | 48 | 10 | 5.2 | 11.3 | 0.00 | 0.00 | 0.00 | 66 | 1003.2 |
| 20260505013211 | 48 | 19 | 5.2 | 11.3 | 0.00 | 0.00 | 0.00 | 64 | 1003.2 |
| 20260505013008 | 48 | 300 | 6.1 | 11.3 | 0.00 | 0.00 | 0.00 | 62 | 1003.3 |
| 20260505012758 | 49 | 321 | 5.2 | 11.3 | 0.00 | 0.00 | 0.00 | 60 | 1003.2 |
| 20260505012553 | 49 | 21 | 5.2 | 11.3 | 0.00 | 0.00 | 0.00 | 59 | 1003.3 |
| 20260505012347 | 49 | 277 | 4.3 | 8.7 | 0.00 | 0.00 | 0.00 | 58 | 1002.9 |
| 20260505012145 | 49 | 286 | 4.3 | 8.7 | 0.00 | 0.00 | 0.00 | 57 | 1002.7 |
| 20260505011938 | 49 | 277 | 4.3 | 7.8 | 0.00 | 0.00 | 0.00 | 56 | 1002.8 |
| 20260505011736 | 49 | 279 | 4.3 | 7.8 | 0.00 | 0.00 | 0.00 | 56 | 1002.8 |
| 20260505011529 | 49 | 276 | 4.3 | 7.8 | 0.00 | 0.00 | 0.00 | 55 | 1002.8 |
| 20260505011002 | 50 | 270 | 4.3 | 7.8 | 0.00 | 0.00 | 0.00 | 54 | 1002.5 |
| 20260505010752 | 50 | 281 | 3.5 | 7.8 | 0.00 | 0.00 | 0.00 | 54 | 1002.5 |
| 20260505010543 | 50 | 284 | 3.5 | 7.8 | 0.00 | 0.00 | 0.00 | 54 | 1002.2 |
| 20260505010018 | 51 | 310 | 4.3 | 7.8 | 0.00 | 0.00 | 0.00 | 52 | 1002.0 |
| 20260505005125 | 52 | 0 | 4.3 | 12.2 | 0.00 | 0.00 | 0.00 | 48 | 1001.7 |
| 20260505004914 | 52 | 355 | 4.3 | 12.2 | 0.00 | 0.00 | 0.00 | 48 | 1001.8 |
| 20260505004705 | 52 | 15 | 4.3 | 12.2 | 0.00 | 0.00 | 0.00 | 48 | 1001.6 |
| 20260505004504 | 52 | 5 | 4.3 | 12.2 | 0.00 | 0.00 | 0.00 | 47 | 1001.4 |
| 20260505003307 | 53 | 346 | 4.3 | 9.6 | 0.00 | 0.00 | 0.00 | 46 | 1001.4 |
| 20260505003106 | 53 | 345 | 4.3 | 9.6 | 0.00 | 0.00 | 0.00 | 46 | 1001.4 |
| 20260505002903 | 53 | 347 | 5.2 | 13.0 | 0.00 | 0.00 | 0.00 | 46 | 1001.4 |
| 20260505002655 | 53 | 322 | 6.1 | 13.0 | 0.00 | 0.00 | 0.00 | 45 | 1001.3 |
| 20260505002451 | 53 | 238 | 6.1 | 13.0 | 0.00 | 0.00 | 0.00 | 45 | 1001.3 |
| 20260505002250 | 54 | 338 | 6.1 | 13.0 | 0.00 | 0.00 | 0.00 | 45 | 1001.2 |
| 20260505002042 | 54 | 346 | 6.1 | 13.0 | 0.00 | 0.00 | 0.00 | 44 | 1001.2 |
| 20260505001838 | 54 | 355 | 6.1 | 13.0 | 0.00 | 0.00 | 0.00 | 44 | 1001.2 |
| 20260505001636 | 54 | 335 | 5.2 | 13.0 | 0.00 | 0.00 | 0.00 | 43 | 1001.3 |
| 20260505001429 | 54 | 348 | 5.2 | 13.0 | 0.00 | 0.00 | 0.00 | 43 | 1001.4 |
| 20260505001227 | 55 | 26 | 5.2 | 13.0 | 0.00 | 0.00 | 0.00 | 41 | 1001.4 |
| 20260505001023 | 55 | 36 | 5.2 | 13.0 | 0.00 | 0.00 | 0.00 | 41 | 1001.4 |
| 20260505000505 | 55 | 15 | 4.3 | 10.4 | 0.00 | 0.00 | 0.00 | 41 | 1001.2 |
| 20260505000306 | 55 | 24 | 4.3 | 10.4 | 0.00 | 0.00 | 0.00 | 41 | 1001.1 |
| 20260505000107 | 55 | 40 | 4.3 | 12.2 | 0.00 | 0.00 | 0.00 | 42 | 1001.2 |
| 20260504235215 | 55 | 50 | 5.2 | 12.2 | 0.00 | 0.00 | 0.00 | 43 | 1001.2 |
| 20260504235013 | 55 | 22 | 5.2 | 12.2 | 0.00 | 0.00 | 0.00 | 42 | 1001.2 |
| 20260504234809 | 55 | 28 | 5.2 | 12.2 | 0.00 | 0.00 | 0.00 | 42 | 1001.2 |
| 20260504234606 | 55 | 15 | 5.2 | 12.2 | 0.00 | 0.00 | 0.00 | 43 | 1001.1 |
| 20260504234359 | 55 | 19 | 5.2 | 12.2 | 0.00 | 0.00 | 0.00 | 42 | 1001.2 |
| 20260504234157 | 55 | 29 | 4.3 | 12.2 | 0.00 | 0.00 | 0.00 | 42 | 1001.2 |
| 20260504233948 | 55 | 346 | 5.2 | 12.2 | 0.00 | 0.00 | 0.00 | 43 | 1001.3 |
| 20260504233739 | 55 | 19 | 6.1 | 12.2 | 0.00 | 0.00 | 0.00 | 42 | 1001.3 |
| 20260504233537 | 55 | 9 | 6.1 | 12.2 | 0.00 | 0.00 | 0.00 | 41 | 1001.2 |
| 20260504233333 | 55 | 61 | 6.1 | 12.2 | 0.00 | 0.00 | 0.00 | 41 | 1001.1 |
| 20260504233127 | 56 | 21 | 5.2 | 12.2 | 0.00 | 0.00 | 0.00 | 42 | 1001.2 |
| 20260504232927 | 56 | 29 | 5.2 | 12.2 | 0.00 | 0.00 | 0.00 | 41 | 1001.4 |
| 20260504232722 | 56 | 63 | 5.2 | 10.4 | 0.00 | 0.00 | 0.00 | 41 | 1001.3 |
| 20260504232517 | 56 | 340 | 5.2 | 8.7 | 0.00 | 0.00 | 0.00 | 40 | 1001.2 |
| 20260504232312 | 55 | 30 | 5.2 | 8.7 | 0.00 | 0.00 | 0.00 | 39 | 1001.3 |
| 20260504232110 | 55 | 351 | 5.2 | 16.5 | 0.00 | 0.00 | 0.00 | 40 | 1001.1 |
| 20260504231908 | 55 | 348 | 5.2 | 16.5 | 0.00 | 0.00 | 0.00 | 41 | 1001.1 |
| 20260504231659 | 55 | 351 | 6.1 | 16.5 | 0.00 | 0.00 | 0.00 | 42 | 1001.0 |
| 20260504231455 | 55 | 355 | 7.0 | 16.5 | 0.00 | 0.00 | 0.00 | 43 | 1001.0 |
| 20260504231253 | 55 | 338 | 7.0 | 16.5 | 0.00 | 0.00 | 0.00 | 43 | 1001.0 |
| 20260504230042 | 56 | 25 | 5.2 | 15.6 | 0.00 | 0.00 | 0.00 | 40 | 1000.9 |
| 20260504225833 | 56 | 327 | 4.3 | 15.6 | 0.00 | 0.00 | 0.00 | 39 | 1000.8 |
| 20260504225629 | 56 | 309 | 5.2 | 15.6 | 0.00 | 0.00 | 0.00 | 38 | 1000.8 |
| 20260504225427 | 56 | 282 | 5.2 | 15.6 | 0.00 | 0.00 | 0.00 | 38 | 1000.8 |
| 20260504225222 | 56 | 310 | 6.1 | 15.6 | 0.00 | 0.00 | 0.00 | 39 | 1000.8 |
| 20260504225015 | 56 | 332 | 7.0 | 15.6 | 0.00 | 0.00 | 0.00 | 38 | 1000.8 |
| 20260504224813 | 56 | 275 | 7.0 | 15.6 | 0.00 | 0.00 | 0.00 | 38 | 1000.6 |
| 20260504224605 | 56 | 333 | 7.0 | 15.6 | 0.00 | 0.00 | 0.00 | 39 | 1000.8 |
| 20260504224406 | 56 | 280 | 6.1 | 15.6 | 0.00 | 0.00 | 0.00 | 36 | 1000.9 |
| 20260504224204 | 57 | 347 | 6.1 | 14.8 | 0.00 | 0.00 | 0.00 | 36 | 1000.8 |
| 20260504224001 | 57 | 315 | 5.2 | 13.0 | 0.00 | 0.00 | 0.00 | 35 | 1000.9 |
| 20260504223801 | 58 | 288 | 4.3 | 10.4 | 0.00 | 0.00 | 0.00 | 35 | 1000.7 |
| 20260504223551 | 58 | 180 | 4.3 | 10.4 | 0.00 | 0.00 | 0.00 | 32 | 1000.6 |
| 20260504223349 | 58 | 111 | 3.5 | 10.4 | 0.00 | 0.00 | 0.00 | 33 | 1000.9 |
| 20260504222827 | 58 | 254 | 1.7 | 4.3 | 0.00 | 0.00 | 0.00 | 32 | 1000.7 |
| 20260504222257 | 59 | 254 | 1.7 | 4.3 | 0.00 | 0.00 | 0.00 | 33 | 1000.7 |
| 20260504222052 | 59 | 254 | 1.7 | 7.8 | 0.00 | 0.00 | 0.00 | 33 | 1000.6 |
| 20260504221845 | 59 | 238 | 1.7 | 7.8 | 0.00 | 0.00 | 0.00 | 32 | 1000.5 |
| 20260504221637 | 59 | 198 | 1.7 | 7.8 | 0.00 | 0.00 | 0.00 | 31 | 1000.6 |
| 20260504221428 | 59 | 201 | 1.7 | 7.8 | 0.00 | 0.00 | 0.00 | 32 | 1000.6 |
| 20260504221222 | 60 | 201 | 1.7 | 7.8 | 0.00 | 0.00 | 0.00 | 33 | 1000.6 |
| 20260504221013 | 60 | 200 | 1.7 | 7.8 | 0.00 | 0.00 | 0.00 | 33 | 1000.7 |
| 20260504220806 | 60 | 207 | 1.7 | 7.8 | 0.00 | 0.00 | 0.00 | 34 | 1000.6 |
| 20260504220557 | 60 | 207 | 1.7 | 7.8 | 0.00 | 0.00 | 0.00 | 33 | 1000.7 |
| 20260504220347 | 60 | 112 | 1.7 | 7.8 | 0.00 | 0.00 | 0.00 | 34 | 1000.7 |
| 20260504220141 | 61 | 287 | 0.9 | 5.2 | 0.00 | 0.00 | 0.00 | 32 | 1000.5 |
| 20260504215940 | 61 | 215 | 0.9 | 5.2 | 0.00 | 0.00 | 0.00 | 33 | 1000.6 |
| 20260504215739 | 61 | 275 | 0.9 | 5.2 | 0.00 | 0.00 | 0.00 | 31 | 1000.6 |
| 20260504215528 | 61 | 134 | 0.9 | 7.8 | 0.00 | 0.00 | 0.00 | 28 | 1000.6 |
| 20260504214958 | 61 | 65 | 2.6 | 7.8 | 0.00 | 0.00 | 0.00 | 33 | 1000.5 |
| 20260504214757 | 61 | 65 | 3.5 | 7.8 | 0.00 | 0.00 | 0.00 | 29 | 1000.5 |
| 20260504214232 | 61 | 14 | 4.3 | 7.8 | 0.00 | 0.00 | 0.00 | 29 | 1000.4 |
| 20260504214031 | 61 | 33 | 4.3 | 7.8 | 0.00 | 0.00 | 0.00 | 29 | 1000.4 |
| 20260504213513 | 61 | 76 | 2.6 | 7.0 | 0.00 | 0.00 | 0.00 | 28 | 1000.4 |
| 20260504212942 | 61 | 323 | 1.7 | 7.8 | 0.00 | 0.00 | 0.00 | 31 | 1000.3 |
| 20260504212740 | 61 | 295 | 2.6 | 7.8 | 0.00 | 0.00 | 0.00 | 30 | 1000.4 |
| 20260504212536 | 61 | 292 | 3.5 | 7.8 | 0.00 | 0.00 | 0.00 | 28 | 1000.4 |
| 20260504212329 | 61 | 292 | 3.5 | 7.8 | 0.00 | 0.00 | 0.00 | 27 | 1000.4 |
| 20260504212122 | 61 | 313 | 4.3 | 7.8 | 0.00 | 0.00 | 0.00 | 28 | 1000.4 |
| 20260504211913 | 61 | 340 | 4.3 | 7.8 | 0.00 | 0.00 | 0.00 | 27 | 1000.4 |
| 20260504211712 | 62 | 327 | 4.3 | 7.8 | 0.00 | 0.00 | 0.00 | 27 | 1000.3 |
| 20260504211503 | 62 | 303 | 4.3 | 7.8 | 0.00 | 0.00 | 0.00 | 27 | 1000.4 |
| 20260504211300 | 62 | 5 | 4.3 | 7.8 | 0.00 | 0.00 | 0.00 | 27 | 1000.4 |
| 20260504211059 | 62 | 21 | 3.5 | 7.0 | 0.00 | 0.00 | 0.00 | 30 | 1000.3 |
| 20260504210855 | 62 | 22 | 3.5 | 7.0 | 0.00 | 0.00 | 0.00 | 26 | 1000.3 |
| 20260504210653 | 62 | 33 | 2.6 | 6.1 | 0.00 | 0.00 | 0.00 | 27 | 1000.4 |
| 20260504210448 | 62 | 19 | 1.7 | 6.1 | 0.00 | 0.00 | 0.00 | 27 | 1000.4 |
| 20260504205927 | 62 | 197 | 0.9 | 5.2 | 0.00 | 0.00 | 0.00 | 26 | 1000.2 |
| 20260504205718 | 62 | 197 | 0.9 | 5.2 | 0.00 | 0.00 | 0.00 | 28 | 1000.2 |
| 20260504205517 | 62 | 197 | 1.7 | 11.3 | 0.00 | 0.00 | 0.00 | 25 | 1000.3 |
| 20260504205314 | 62 | 197 | 2.6 | 11.3 | 0.00 | 0.00 | 0.00 | 25 | 1000.3 |
| 20260504205108 | 62 | 197 | 3.5 | 11.3 | 0.00 | 0.00 | 0.00 | 26 | 1000.3 |
| 20260504204908 | 62 | 197 | 4.3 | 11.3 | 0.00 | 0.00 | 0.00 | 25 | 1000.3 |
| 20260504204352 | 62 | 281 | 6.1 | 11.3 | 0.00 | 0.00 | 0.00 | 25 | 1000.3 |
| 20260504204152 | 63 | 285 | 5.2 | 11.3 | 0.00 | 0.00 | 0.00 | 26 | 1000.4 |
| 20260504203950 | 63 | 300 | 4.3 | 11.3 | 0.00 | 0.00 | 0.00 | 26 | 1000.4 |
| 20260504203741 | 63 | 267 | 3.5 | 11.3 | 0.00 | 0.00 | 0.00 | 26 | 1000.5 |
| 20260504203216 | 63 | 187 | 2.6 | 10.4 | 0.00 | 0.00 | 0.00 | 26 | 1000.6 |
| 20260504203007 | 63 | 182 | 2.6 | 7.0 | 0.00 | 0.00 | 0.00 | 27 | 1000.6 |
| 20260504202801 | 62 | 150 | 2.6 | 7.0 | 0.00 | 0.00 | 0.00 | 25 | 1000.6 |
| 20260504202600 | 62 | 155 | 2.6 | 7.0 | 0.00 | 0.00 | 0.00 | 25 | 1000.7 |
| 20260504202350 | 62 | 193 | 2.6 | 7.0 | 0.00 | 0.00 | 0.00 | 26 | 1000.6 |
| 20260504202149 | 62 | 90 | 2.6 | 7.0 | 0.00 | 0.00 | 0.00 | 29 | 1000.6 |
| 20260504201945 | 62 | 57 | 1.7 | 7.0 | 0.00 | 0.00 | 0.00 | 28 | 1000.6 |
| 20260504201742 | 62 | 16 | 1.7 | 6.1 | 0.00 | 0.00 | 0.00 | 28 | 1000.6 |
| 20260504201534 | 62 | 23 | 0.9 | 6.1 | 0.00 | 0.00 | 0.00 | 28 | 1000.7 |
| 20260504201330 | 62 | 257 | 0.9 | 4.3 | 0.00 | 0.00 | 0.00 | 28 | 1000.8 |
| 20260504200805 | 61 | 256 | 0.9 | 7.8 | 0.00 | 0.00 | 0.00 | 26 | 1000.9 |
| 20260504200245 | 61 | 256 | 2.6 | 7.8 | 0.00 | 0.00 | 0.00 | 24 | 1000.9 |
| 20260504200041 | 61 | 256 | 3.5 | 7.8 | 0.00 | 0.00 | 0.00 | 27 | 1001.0 |
| 20260504195146 | 61 | 248 | 1.7 | 6.1 | 0.00 | 0.00 | 0.00 | 25 | 1001.0 |
| 20260504194940 | 61 | 263 | 1.7 | 5.2 | 0.00 | 0.00 | 0.00 | 26 | 1001.0 |
| 20260504194738 | 61 | 335 | 0.9 | 5.2 | 0.00 | 0.00 | 0.00 | 28 | 1001.0 |
| 20260504194528 | 61 | 328 | 0.9 | 4.3 | 0.00 | 0.00 | 0.00 | 29 | 1001.0 |
| 20260504194002 | 61 | 34 | 1.7 | 4.3 | 0.00 | 0.00 | 0.00 | 27 | 1001.3 |
| 20260504193438 | 61 | 35 | 2.6 | 8.7 | 0.00 | 0.00 | 0.00 | 26 | 1001.1 |
| 20260504192912 | 61 | 32 | 2.6 | 8.7 | 0.00 | 0.00 | 0.00 | 28 | 1001.2 |
| 20260504192707 | 61 | 51 | 2.6 | 13.0 | 0.00 | 0.00 | 0.00 | 30 | 1001.1 |
| 20260504192500 | 61 | 40 | 2.6 | 13.0 | 0.00 | 0.00 | 0.00 | 30 | 1001.1 |
| 20260504192254 | 61 | 42 | 3.5 | 13.0 | 0.00 | 0.00 | 0.00 | 29 | 1001.1 |
| 20260504192049 | 61 | 42 | 3.5 | 13.0 | 0.00 | 0.00 | 0.00 | 28 | 1001.1 |
| 20260504191518 | 62 | 69 | 5.2 | 13.0 | 0.00 | 0.00 | 0.00 | 26 | 1001.1 |
| 20260504191315 | 62 | 43 | 6.1 | 13.0 | 0.00 | 0.00 | 0.00 | 27 | 1001.1 |
| 20260504191115 | 62 | 44 | 6.1 | 13.0 | 0.00 | 0.00 | 0.00 | 27 | 1001.1 |
| 20260504190908 | 62 | 71 | 6.1 | 13.0 | 0.00 | 0.00 | 0.00 | 28 | 1001.2 |
| 20260504190709 | 62 | 350 | 6.1 | 12.2 | 0.00 | 0.00 | 0.00 | 30 | 1001.1 |
| 20260504190506 | 61 | 75 | 5.2 | 10.4 | 0.00 | 0.00 | 0.00 | 30 | 1001.1 |
| 20260504190307 | 61 | 38 | 5.2 | 10.4 | 0.00 | 0.00 | 0.00 | 29 | 1001.2 |
| 20260504190106 | 61 | 49 | 4.3 | 10.4 | 0.00 | 0.00 | 0.00 | 30 | 1001.2 |
| 20260504185856 | 60 | 26 | 3.5 | 10.4 | 0.00 | 0.00 | 0.00 | 28 | 1001.3 |
| 20260504185656 | 60 | 40 | 4.3 | 10.4 | 0.00 | 0.00 | 0.00 | 30 | 1001.3 |
| 20260504185456 | 60 | 17 | 5.2 | 10.4 | 0.00 | 0.00 | 0.00 | 29 | 1001.4 |
| 20260504185256 | 60 | 27 | 5.2 | 10.4 | 0.00 | 0.00 | 0.00 | 31 | 1001.4 |
| 20260504185054 | 59 | 348 | 6.1 | 10.4 | 0.00 | 0.00 | 0.00 | 29 | 1001.4 |
| 20260504184533 | 59 | 28 | 5.2 | 10.4 | 0.00 | 0.00 | 0.00 | 30 | 1001.6 |
| 20260504184333 | 59 | 25 | 3.5 | 8.7 | 0.00 | 0.00 | 0.00 | 29 | 1001.7 |
| 20260504184129 | 59 | 332 | 2.6 | 8.7 | 0.00 | 0.00 | 0.00 | 29 | 1001.7 |
| 20260504183918 | 59 | 284 | 2.6 | 7.8 | 0.00 | 0.00 | 0.00 | 28 | 1001.8 |
| 20260504183041 | 58 | 345 | 6.1 | 17.4 | 0.00 | 0.00 | 0.00 | 31 | 1001.9 |
| 20260504182841 | 58 | 345 | 7.0 | 17.4 | 0.00 | 0.00 | 0.00 | 29 | 1002.0 |
| 20260504182634 | 59 | 355 | 7.0 | 17.4 | 0.00 | 0.00 | 0.00 | 29 | 1002.0 |
| 20260504182430 | 59 | 296 | 6.1 | 17.4 | 0.00 | 0.00 | 0.00 | 29 | 1002.2 |
| 20260504182228 | 59 | 261 | 5.2 | 17.4 | 0.00 | 0.00 | 0.00 | 28 | 1002.1 |
| 20260504182020 | 59 | 337 | 4.3 | 17.4 | 0.00 | 0.00 | 0.00 | 27 | 1001.9 |
| 20260504181816 | 60 | 332 | 2.6 | 17.4 | 0.00 | 0.00 | 0.00 | 28 | 1002.1 |
| 20260504181611 | 60 | 292 | 2.6 | 5.2 | 0.00 | 0.00 | 0.00 | 27 | 1002.0 |
| 20260504181410 | 60 | 291 | 1.7 | 5.2 | 0.00 | 0.00 | 0.00 | 27 | 1001.9 |
| 20260504181204 | 60 | 290 | 1.7 | 6.1 | 0.00 | 0.00 | 0.00 | 27 | 1001.9 |
| 20260504180959 | 60 | 289 | 0.9 | 6.1 | 0.00 | 0.00 | 0.00 | 27 | 1001.9 |
| 20260504180756 | 60 | 229 | 0.9 | 6.1 | 0.00 | 0.00 | 0.00 | 28 | 1001.9 |
| 20260504180553 | 60 | 228 | 1.7 | 6.1 | 0.00 | 0.00 | 0.00 | 29 | 1001.9 |
| 20260504180343 | 60 | 190 | 1.7 | 6.1 | 0.00 | 0.00 | 0.00 | 28 | 1001.9 |
| 20260504180139 | 60 | 257 | 1.7 | 6.1 | 0.00 | 0.00 | 0.00 | 29 | 1002.0 |
| 20260504175937 | 60 | 257 | 2.6 | 6.1 | 0.00 | 0.00 | 0.00 | 25 | 1002.1 |
| 20260504175726 | 60 | 264 | 2.6 | 6.1 | 0.00 | 0.00 | 0.00 | 25 | 1002.2 |
| 20260504175520 | 60 | 248 | 2.6 | 6.1 | 0.00 | 0.00 | 0.00 | 27 | 1002.1 |
| 20260504175320 | 60 | 213 | 2.6 | 6.1 | 0.00 | 0.00 | 0.00 | 25 | 1002.2 |
| 20260504174754 | 60 | 257 | 3.5 | 9.6 | 0.00 | 0.00 | 0.00 | 26 | 1002.3 |
| 20260504174548 | 60 | 204 | 3.5 | 9.6 | 0.00 | 0.00 | 0.00 | 29 | 1002.4 |
| 20260504174345 | 60 | 254 | 4.3 | 9.6 | 0.00 | 0.00 | 0.00 | 27 | 1002.4 |
| 20260504174136 | 60 | 264 | 3.5 | 11.3 | 0.00 | 0.00 | 0.00 | 29 | 1002.4 |
| 20260504173926 | 59 | 274 | 2.6 | 11.3 | 0.00 | 0.00 | 0.00 | 31 | 1002.4 |
| 20260504173717 | 59 | 264 | 2.6 | 11.3 | 0.00 | 0.00 | 0.00 | 30 | 1002.6 |
| 20260504173507 | 59 | 254 | 3.5 | 11.3 | 0.00 | 0.00 | 0.00 | 29 | 1002.7 |
| 20260504173307 | 59 | 250 | 4.3 | 11.3 | 0.00 | 0.00 | 0.00 | 32 | 1002.7 |
| 20260504173100 | 59 | 250 | 5.2 | 12.2 | 0.00 | 0.00 | 0.00 | 31 | 1002.8 |
| 20260504172855 | 59 | 262 | 6.1 | 12.2 | 0.00 | 0.00 | 0.00 | 31 | 1002.8 |
| 20260504172650 | 59 | 238 | 7.0 | 12.2 | 0.00 | 0.00 | 0.00 | 30 | 1002.9 |
| 20260504172446 | 59 | 252 | 7.0 | 12.2 | 0.00 | 0.00 | 0.00 | 31 | 1003.0 |
| 20260504171922 | 59 | 269 | 7.0 | 14.8 | 0.00 | 0.00 | 0.00 | 34 | 1003.0 |
| 20260504171721 | 58 | 282 | 7.8 | 14.8 | 0.00 | 0.00 | 0.00 | 33 | 1002.9 |
| 20260504171152 | 58 | 225 | 7.8 | 16.5 | 0.00 | 0.00 | 0.00 | 33 | 1003.1 |
| 20260504170952 | 58 | 248 | 7.8 | 16.5 | 0.00 | 0.00 | 0.00 | 34 | 1003.1 |
| 20260504170743 | 58 | 284 | 7.8 | 16.5 | 0.00 | 0.00 | 0.00 | 35 | 1003.1 |
| 20260504170543 | 58 | 277 | 8.7 | 16.5 | 0.00 | 0.00 | 0.00 | 35 | 1003.1 |
| 20260504160402 | 59 | 249 | 5.2 | 10.4 | 0.00 | 0.00 | 0.00 | 35 | 1003.6 |
| 20260504160156 | 59 | 236 | 5.2 | 10.4 | 0.00 | 0.00 | 0.00 | 34 | 1003.7 |
| 20260504151037 | 57 | 230 | 7.8 | 16.5 | 0.00 | 0.00 | 0.00 | 35 | 1003.7 |
| 20260504150832 | 57 | 246 | 7.8 | 16.5 | 0.00 | 0.00 | 0.00 | 35 | 1003.7 |
| 20260504150631 | 57 | 263 | 7.8 | 16.5 | 0.00 | 0.00 | 0.00 | 37 | 1003.7 |
| 20260504150424 | 57 | 284 | 7.8 | 16.5 | 0.00 | 0.00 | 0.00 | 37 | 1003.7 |
| 20260504150212 | 57 | 292 | 8.7 | 16.5 | 0.00 | 0.00 | 0.00 | 37 | 1003.8 |
| 20260504141223 | 53 | 259 | 6.1 | 12.2 | 0.00 | 0.00 | 0.00 | 39 | 1003.7 |
| 20260504141023 | 53 | 260 | 6.1 | 12.2 | 0.00 | 0.00 | 0.00 | 41 | 1003.8 |
| 20260504140815 | 53 | 248 | 6.1 | 12.2 | 0.00 | 0.00 | 0.00 | 40 | 1003.8 |
| 20260504140616 | 53 | 234 | 5.2 | 12.2 | 0.00 | 0.00 | 0.00 | 39 | 1003.7 |
| 20260504140410 | 53 | 272 | 5.2 | 12.2 | 0.00 | 0.00 | 0.00 | 41 | 1003.7 |
| 20260504140204 | 53 | 298 | 5.2 | 12.2 | 0.00 | 0.00 | 0.00 | 41 | 1003.7 |
| 20260504130733 | 49 | 246 | 4.3 | 7.0 | 0.00 | 0.00 | 0.00 | 45 | 1004.2 |
| 20260504130528 | 49 | 238 | 3.5 | 7.0 | 0.00 | 0.00 | 0.00 | 46 | 1004.2 |
| 20260504130321 | 49 | 263 | 4.3 | 7.0 | 0.00 | 0.00 | 0.00 | 45 | 1004.1 |
| 20260504130120 | 49 | 248 | 4.3 | 7.0 | 0.00 | 0.00 | 0.00 | 44 | 1004.1 |
| 20260504120259 | 36 | 322 | 0.9 | 3.5 | 0.00 | 0.00 | 0.00 | 72 | 1004.1 |
| 20260504110535 | 35 | 355 | 0.0 | 0.0 | 0.00 | 0.00 | 0.00 | 73 | 1004.2 |
| 20260504110335 | 35 | 355 | 0.0 | 0.0 | 0.00 | 0.00 | 0.00 | 72 | 1004.2 |
| 20260504110129 | 35 | 355 | 0.0 | 0.0 | 0.00 | 0.00 | 0.00 | 72 | 1004.2 |
| 20260504100508 | 36 | 355 | 0.0 | 0.0 | 0.00 | 0.00 | 0.00 | 71 | 1004.1 |
| 20260504100308 | 36 | 355 | 0.0 | 0.0 | 0.00 | 0.00 | 0.00 | 70 | 1004.1 |
| 20260504100104 | 36 | 355 | 0.0 | 0.9 | 0.00 | 0.00 | 0.00 | 69 | 1004.1 |
| 20260504081458 | 36 | 355 | 0.0 | 0.0 | 0.00 | 0.00 | 0.00 | 71 | 1004.6 |
| 20260504081256 | 36 | 355 | 0.0 | 0.0 | 0.00 | 0.00 | 0.00 | 71 | 1004.7 |
| 20260504081056 | 36 | 355 | 0.0 | 0.0 | 0.00 | 0.00 | 0.00 | 71 | 1004.7 |
| 20260504080845 | 36 | 355 | 0.0 | 0.9 | 0.00 | 0.00 | 0.00 | 71 | 1004.7 |
| 20260504080324 | 36 | 355 | 0.0 | 0.0 | 0.00 | 0.00 | 0.00 | 72 | 1004.8 |
| 20260504080123 | 36 | 355 | 0.0 | 0.9 | 0.00 | 0.00 | 0.00 | 72 | 1004.9 |